When you browse on this site, cookies collect data to enhance your experience and personalize the content and advertising you see.
Visit our Privacy Policy to learn more. By continuing to use the site, you agree to this use of cookies and data.
  • In United Kingdom
  • List of Countries
  • For 7 days
  • Water Temperature
  • Satellite Maps
  • Weather Map
  • Weather Widgets
  • user-avatar
    Login

    Hourly Weather Generalskoe

    Today, 21 February, Thursday

    Time Temperature Precipitation Wind Pressure Humidity
    00:00 -7°C° 0 mm 5 mps 757 mmHg 85%
    01:00 -6°C° 0.1 mm 5 mps 756 mmHg 87%
    02:00 -6°C° 0.1 mm 5 mps 756 mmHg 89%
    03:00 -5°C° 0 mm 4 mps 755 mmHg 90%
    04:00 -5°C° 0.3 mm 4 mps 755 mmHg 91%
    05:00 -5°C° 0.3 mm 5 mps 754 mmHg 91%
    06:00 -5°C° 0.3 mm 6 mps 754 mmHg 92%
    07:00 -5°C° 0.1 mm 6 mps 754 mmHg 91%
    08:00 -4°C° 0.1 mm 6 mps 753 mmHg 91%
    09:00 -4°C° 0.1 mm 6 mps 753 mmHg 90%
    10:00 -3°C° 0.2 mm 6 mps 753 mmHg 91%
    11:00 -3°C° 0.2 mm 6 mps 752 mmHg 93%
    12:00 -1°C° 0.2 mm 5 mps 752 mmHg 94%
    13:00 -1°C° 0.2 mm 5 mps 751 mmHg 94%
    14:00 -1°C° 0.2 mm 5 mps 751 mmHg 94%
    15:00 -1°C° 0.2 mm 5 mps 750 mmHg 95%
    16:00 -1°C° 0 mm 5 mps 750 mmHg 93%
    17:00 -1°C° 0 mm 5 mps 750 mmHg 92%
    18:00 -2°C° 0 mm 6 mps 750 mmHg 91%
    19:00 -2°C° 0.1 mm 6 mps 749 mmHg 90%
    20:00 -2°C° 0.1 mm 6 mps 749 mmHg 89%
    21:00 -2°C° 0.1 mm 6 mps 749 mmHg 88%
    22:00 -4°C° 0 mm 6 mps 749 mmHg 87%
    23:00 -6°C° 0 mm 5 mps 749 mmHg 87%

    Tomorrow, 22 February, Friday

    Time Temperature Precipitation Wind Pressure Humidity
    00:00 -8°C° 0 mm 4 mps 750 mmHg 86%
    01:00 -8°C° 0 mm 5 mps 750 mmHg 87%
    02:00 -10°C° 0 mm 5 mps 750 mmHg 88%
    03:00 -10°C° 0 mm 5 mps 750 mmHg 89%
    04:00 -10°C° 0 mm 5 mps 750 mmHg 89%
    05:00 -10°C° 0 mm 5 mps 750 mmHg 89%
    06:00 -10°C° 0 mm 5 mps 750 mmHg 88%
    07:00 -10°C° 0 mm 5 mps 750 mmHg 87%
    08:00 -10°C° 0 mm 5 mps 751 mmHg 86%
    09:00 -10°C° 0 mm 6 mps 751 mmHg 85%
    10:00 -9°C° 0 mm 6 mps 752 mmHg 83%
    11:00 -8°C° 0 mm 7 mps 752 mmHg 81%
    12:00 -7°C° 0 mm 7 mps 753 mmHg 79%
    13:00 -8°C° 0 mm 7 mps 753 mmHg 78%
    14:00 -8°C° 0 mm 7 mps 754 mmHg 78%
    15:00 -8°C° 0 mm 7 mps 755 mmHg 78%
    16:00 -9°C° 0 mm 6 mps 756 mmHg 80%
    17:00 -8°C° 0 mm 5 mps 757 mmHg 81%
    18:00 -10°C° 0 mm 5 mps 757 mmHg 83%
    19:00 -11°C° 0 mm 5 mps 758 mmHg 84%
    20:00 -11°C° 0 mm 5 mps 759 mmHg 85%
    21:00 -12°C° 0 mm 5 mps 760 mmHg 86%
    22:00 -11°C° 0 mm 4 mps 760 mmHg 87%
    23:00 -12°C° 0 mm 4 mps 761 mmHg 88%

    Day after tomorrow, 23 February, Saturday

    Time Temperature Precipitation Wind Pressure Humidity
    00:00 -12°C° 0 mm 4 mps 762 mmHg 89%
    01:00 -12°C° 0 mm 4 mps 762 mmHg 90%
    02:00 -13°C° 0 mm 3 mps 763 mmHg 90%
    03:00 -13°C° 0 mm 3 mps 763 mmHg 91%
    04:00 -13°C° 0 mm 3 mps 764 mmHg 92%
    05:00 -13°C° 0 mm 3 mps 765 mmHg 92%
    06:00 -13°C° 0 mm 3 mps 765 mmHg 92%
    07:00 -13°C° 0 mm 3 mps 766 mmHg 92%
    08:00 -12°C° 0 mm 3 mps 767 mmHg 91%
    09:00 -10°C° 0 mm 2 mps 767 mmHg 91%
    10:00 -9°C° 0 mm 2 mps 768 mmHg 90%
    11:00 -8°C° 0 mm 2 mps 768 mmHg 89%
    12:00 -7°C° 0 mm 2 mps 769 mmHg 88%
    13:00 -7°C° 0 mm 2 mps 769 mmHg 87%
    14:00 -4°C° 0 mm 1 mps 769 mmHg 87%
    15:00 -4°C° 0 mm 1 mps 769 mmHg 86%
    16:00 -4°C° 0 mm 1 mps 769 mmHg 88%
    17:00 -6°C° 0 mm 1 mps 770 mmHg 89%
    18:00 -6°C° 0 mm 1 mps 770 mmHg 90%
    19:00 -7°C° 0 mm 1 mps 770 mmHg 90%
    20:00 -7°C° 0 mm 1 mps 771 mmHg 90%
    21:00 -7°C° 0 mm 1 mps 771 mmHg 89%
    22:00 -7°C° 0 mm 1 mps 771 mmHg 89%
    23:00 -8°C° 0 mm 1 mps 771 mmHg 89%

    24 February, Sunday

    Time Temperature Precipitation Wind Pressure Humidity
    00:00 -8°C° 0 mm 1 mps 771 mmHg 90%
    01:00 -8°C° 0 mm 1 mps 771 mmHg 90%
    02:00 -9°C° 0 mm 1 mps 771 mmHg 90%
    03:00 -10°C° 0 mm 2 mps 771 mmHg 91%
    04:00 -12°C° 0 mm 2 mps 771 mmHg 91%
    05:00 -10°C° 0 mm 1 mps 771 mmHg 91%
    06:00 -11°C° 0 mm 1 mps 771 mmHg 91%
    07:00 -10°C° 0 mm 1 mps 771 mmHg 90%
    08:00 -10°C° 0 mm 1 mps 771 mmHg 89%
    09:00 -10°C° 0 mm 1 mps 772 mmHg 88%
    10:00 -9°C° 0 mm 1 mps 771 mmHg 86%
    11:00 -8°C° 0 mm 1 mps 771 mmHg 85%
    12:00 -7°C° 0 mm 1 mps 771 mmHg 83%
    13:00 -7°C° 0 mm 1 mps 771 mmHg 83%
    14:00 -6°C° 0 mm 1 mps 771 mmHg 84%
    15:00 -7°C° 0 mm 2 mps 770 mmHg 85%
    16:00 -7°C° 0 mm 2 mps 770 mmHg 87%
    17:00 -8°C° 0 mm 2 mps 770 mmHg 88%
    18:00 -9°C° 0 mm 2 mps 770 mmHg 90%
    19:00 -10°C° 0 mm 2 mps 770 mmHg 90%
    20:00 -10°C° 0 mm 2 mps 770 mmHg 90%
    21:00 -12°C° 0 mm 2 mps 770 mmHg 90%
    22:00 -12°C° 0 mm 2 mps 770 mmHg 90%
    23:00 -13°C° 0 mm 3 mps 769 mmHg 90%

    25 February, Monday

    Time Temperature Precipitation Wind Pressure Humidity
    00:00 -12°C° 0 mm 3 mps 769 mmHg 90%
    01:00 -12°C° 0 mm 3 mps 769 mmHg 89%
    02:00 -12°C° 0 mm 3 mps 768 mmHg 88%
    03:00 -12°C° 0 mm 3 mps 768 mmHg 87%
    04:00 -10°C° 0 mm 3 mps 767 mmHg 88%
    05:00 -10°C° 0 mm 3 mps 767 mmHg 88%
    06:00 -11°C° 0 mm 4 mps 766 mmHg 89%
    07:00 -11°C° 0 mm 4 mps 766 mmHg 89%
    08:00 -11°C° 0 mm 4 mps 765 mmHg 90%
    09:00 -10°C° 0 mm 4 mps 765 mmHg 90%
    10:00 -9°C° 0 mm 4 mps 764 mmHg 90%
    11:00 -8°C° 0 mm 4 mps 764 mmHg 90%
    12:00 -7°C° 0 mm 4 mps 763 mmHg 89%
    13:00 -5°C° 0 mm 4 mps 762 mmHg 89%
    14:00 -6°C° 0 mm 5 mps 761 mmHg 89%
    15:00 -5°C° 0 mm 5 mps 760 mmHg 88%
    16:00 -5°C° 0.1 mm 5 mps 759 mmHg 89%
    17:00 -5°C° 0.1 mm 5 mps 758 mmHg 90%
    18:00 -5°C° 0.1 mm 5 mps 757 mmHg 90%
    19:00 -5°C° 0.2 mm 5 mps 756 mmHg 90%
    20:00 -5°C° 0.2 mm 5 mps 755 mmHg 91%
    21:00 -5°C° 0.2 mm 5 mps 754 mmHg 91%
    22:00 -4°C° 0.2 mm 5 mps 753 mmHg 90%
    23:00 -4°C° 0.2 mm 5 mps 752 mmHg 90%

    26 February, Tuesday

    Time Temperature Precipitation Wind Pressure Humidity
    00:00 -4°C° 0.2 mm 5 mps 752 mmHg 90%
    01:00 -4°C° 0.1 mm 5 mps 751 mmHg 89%
    02:00 -2°C° 0.1 mm 5 mps 751 mmHg 89%
    03:00 -2°C° 0.1 mm 5 mps 750 mmHg 88%
    04:00 -4°C° 0 mm 5 mps 750 mmHg 89%
    05:00 -5°C° 0 mm 5 mps 749 mmHg 89%
    06:00 -5°C° 0 mm 4 mps 749 mmHg 89%
    07:00 -6°C° 0 mm 5 mps 749 mmHg 88%
    08:00 -5°C° 0 mm 5 mps 749 mmHg 87%
    09:00 -5°C° 0 mm 5 mps 748 mmHg 86%
    10:00 -4°C° 0.1 mm 5 mps 748 mmHg 86%
    11:00 -4°C° 0.1 mm 6 mps 747 mmHg 85%
    12:00 -4°C° 0.1 mm 6 mps 747 mmHg 85%
    13:00 -4°C° 0.2 mm 6 mps 746 mmHg 85%
    14:00 -4°C° 0.2 mm 6 mps 746 mmHg 85%
    15:00 -4°C° 0.2 mm 7 mps 745 mmHg 85%
    16:00 -4°C° 0.1 mm 6 mps 745 mmHg 85%
    17:00 -4°C° 0.1 mm 6 mps 745 mmHg 85%
    18:00 -5°C° 0.1 mm 6 mps 745 mmHg 85%
    19:00 -5°C° 0.1 mm 6 mps 745 mmHg 86%
    20:00 -5°C° 0.1 mm 6 mps 745 mmHg 86%
    21:00 -6°C° 0.1 mm 5 mps 744 mmHg 86%
    22:00 -6°C° 0.1 mm 5 mps 744 mmHg 87%
    23:00 -6°C° 0.1 mm 5 mps 744 mmHg 87%
    Show more